OE3TEC-15 Weather Reports


Display with metric or nautical units.
time (UTC)temp
F
wind
direction
speed
MPH
gust
MPH
rain 1hr
in
rain 24hr
in
rain mn
in
humidity
%
barometer
mb
20260505185643 66 89 3.0 8.0 0.00 0.00 0.00 49 1004.9
20260505184632 67 96 3.0 6.0 0.00 0.00 0.00 49 1004.8
20260505183632 68 97 3.0 7.0 0.00 0.00 0.00 47 1004.7
20260505182627 69 90 3.0 9.0 0.00 0.00 0.00 46 1004.9
20260505181620 69 105 3.0 7.0 0.00 0.00 0.00 46 1004.9
20260505180611 70 98 3.0 10.0 0.00 0.00 0.00 45 1004.9
20260505175605 71 107 3.0 9.0 0.00 0.00 0.00 44 1004.9
20260505174604 72 91 4.0 9.0 0.00 0.00 0.00 43 1004.8
20260505173601 72 92 4.0 10.0 0.00 0.00 0.00 42 1004.9
20260505172553 73 94 4.0 10.0 0.00 0.00 0.00 41 1004.6
20260505171546 74 98 4.0 11.0 0.00 0.00 0.00 41 1004.9
20260505170537 74 102 4.0 8.0 0.00 0.00 0.00 40 1005.0
20260505165531 75 115 4.0 13.0 0.00 0.00 0.00 39 1004.9
20260505164523 76 104 5.0 13.0 0.00 0.00 0.00 38 1005.0
20260505163516 76 111 4.0 14.0 0.00 0.00 0.00 38 1004.7
20260505162509 77 122 3.0 11.0 0.00 0.00 0.00 36 1004.7
20260505161501 78 149 4.0 11.0 0.00 0.00 0.00 34 1004.9
20260505160453 79 110 5.0 14.0 0.00 0.00 0.00 33 1004.9
20260505152425 80 106 5.0 15.0 0.00 0.00 0.00 33 1005.0
20260505151418 81 108 5.0 11.0 0.00 0.00 0.00 30 1004.8
20260505150410 82 113 4.0 11.0 0.00 0.00 0.00 29 1005.0
20260505140326 83 91 5.0 17.0 0.00 0.00 0.00 26 1005.8
20260505130252 82 104 4.0 11.0 0.00 0.00 0.00 27 1006.6
20260505124238 83 112 3.0 11.0 0.00 0.00 0.00 28 1006.9
20260505123230 81 131 2.0 8.0 0.00 0.00 0.00 30 1007.0
20260505122223 80 91 4.0 10.0 0.00 0.00 0.00 34 1007.3
20260505121217 79 113 4.0 13.0 0.00 0.00 0.00 35 1007.5
20260505120210 79 126 3.0 10.0 0.00 0.00 0.00 36 1007.7
20260505115202 78 129 4.0 13.0 0.00 0.00 0.00 37 1008.0
20260505114155 78 118 4.0 11.0 0.00 0.00 0.00 36 1008.0
20260505113148 77 104 5.0 13.0 0.00 0.00 0.00 38 1008.2
20260505112140 77 100 4.0 11.0 0.00 0.00 0.00 37 1008.3
20260505111133 75 90 5.0 11.0 0.00 0.00 0.00 38 1008.4
20260505110126 74 98 4.0 11.0 0.00 0.00 0.00 36 1008.7
20260505102056 73 99 5.0 11.0 0.00 0.00 0.00 41 1009.1
20260505101050 75 106 3.0 11.0 0.00 0.00 0.00 40 1009.3
20260505100043 73 98 4.0 10.0 0.00 0.00 0.00 43 1009.4
20260505095036 74 112 3.0 9.0 0.00 0.00 0.00 42 1009.6
20260505094028 73 101 3.0 10.0 0.00 0.00 0.00 44 1009.6
20260505093022 71 99 4.0 9.0 0.00 0.00 0.00 46 1009.8
20260505092014 72 101 3.0 9.0 0.00 0.00 0.00 44 1009.8
20260505091006 71 97 3.0 10.0 0.00 0.00 0.00 45 1009.8
20260505085958 69 111 3.0 7.0 0.00 0.00 0.00 47 1010.1
20260505084951 67 106 3.0 9.0 0.00 0.00 0.00 51 1010.1
20260505083945 69 117 3.0 8.0 0.00 0.00 0.00 48 1010.0
20260505082939 70 121 2.0 7.0 0.00 0.00 0.00 48 1010.1
20260505081931 69 123 2.0 7.0 0.00 0.00 0.00 51 1010.1
20260505080923 67 101 3.0 7.0 0.00 0.00 0.00 51 1010.2
20260505075916 67 116 2.0 6.0 0.00 0.00 0.00 52 1010.4
20260505074916 67 128 2.0 7.0 0.00 0.00 0.00 52 1010.3
20260505073911 65 99 2.0 7.0 0.00 0.00 0.00 52 1010.4
20260505072904 64 100 3.0 6.0 0.00 0.00 0.00 54 1010.3
20260505071858 63 108 2.0 6.0 0.00 0.00 0.00 57 1010.4
20260505070849 62 126 2.0 4.0 0.00 0.00 0.00 57 1010.3
20260505065842 62 107 2.0 4.0 0.00 0.00 0.00 58 1010.5
20260505064834 62 123 1.0 4.0 0.00 0.00 0.00 58 1010.5
20260505063828 63 108 2.0 4.0 0.00 0.00 0.00 55 1010.5
20260505062821 62 106 1.0 4.0 0.00 0.00 0.00 56 1010.4
20260505061813 61 105 2.0 4.0 0.00 0.00 0.00 58 1010.5
20260505060812 60 144 1.0 3.0 0.00 0.00 0.00 59 1010.5
20260505055807 59 159 1.0 3.0 0.00 0.00 0.00 61 1010.6
20260505054800 58 177 1.0 2.0 0.00 0.00 0.00 63 1010.6
20260505053754 57 190 1.0 2.0 0.00 0.00 0.00 65 1010.7
20260505052747 57 204 0.0 0.0 0.00 0.00 0.00 65 1010.6
20260505051739 55 189 0.0 1.0 0.00 0.00 0.00 69 1010.6
20260505050732 52 186 0.0 1.0 0.00 0.00 0.00 75 1010.4
20260505041655 45 203 0.0 0.0 0.00 0.00 0.00 85 1010.3
20260505040648 45 201 0.0 0.0 0.00 0.00 0.00 85 1010.4
20260505035642 45 204 0.0 0.0 0.00 0.00 0.00 85 1010.2
20260505034635 45 209 0.0 0.0 0.00 0.00 0.00 86 1010.4
20260505033627 44 198 0.0 0.0 0.00 0.00 0.00 86 1010.3
20260505032620 45 209 0.0 1.0 0.00 0.00 0.00 84 1010.3
20260505031613 44 213 0.0 1.0 0.00 0.00 0.00 85 1010.3
20260505030605 45 210 0.0 1.0 0.00 0.00 0.00 84 1010.2
20260505025558 45 206 0.0 1.0 0.00 0.00 0.00 83 1010.4
20260505024551 45 201 0.0 2.0 0.00 0.00 0.00 83 1010.3
20260505023543 46 198 0.0 1.0 0.00 0.00 0.00 83 1010.3
20260505022536 46 205 0.0 1.0 0.00 0.00 0.00 82 1010.6
20260505021530 46 205 0.0 0.0 0.00 0.00 0.00 81 1010.7
20260505020523 47 211 0.0 0.0 0.00 0.00 0.00 81 1010.7
20260505015515 47 205 0.0 1.0 0.00 0.00 0.00 81 1010.8
20260505014508 47 213 0.0 2.0 0.00 0.00 0.00 79 1010.8
20260505013501 48 213 1.0 2.0 0.00 0.00 0.00 78 1010.7
20260505012453 49 209 0.0 2.0 0.00 0.00 0.00 76 1010.8
20260505011446 50 200 0.0 1.0 0.00 0.00 0.00 74 1010.8
20260505010439 51 204 0.0 0.0 0.00 0.00 0.00 72 1010.9
20260505005431 52 209 0.0 1.0 0.00 0.00 0.00 69 1011.0
20260505004424 54 205 0.0 1.0 0.00 0.00 0.00 66 1010.8
20260505003418 55 189 0.0 1.0 0.00 0.00 0.00 63 1010.9
20260505002418 56 193 0.0 1.0 0.00 0.00 0.00 61 1010.8
20260505001413 58 209 0.0 1.0 0.00 0.00 0.00 58 1010.8
20260505000406 58 208 0.0 2.0 0.00 0.00 0.00 57 1010.8
20260504235357 58 198 0.0 2.0 0.00 0.00 0.00 57 1011.1
20260504233343 60 177 0.0 2.0 0.00 0.00 0.00 54 1011.2
20260504232336 59 187 0.0 1.0 0.00 0.00 0.00 55 1011.2
20260504231327 58 214 1.0 3.0 0.00 0.00 0.00 56 1011.3
20260504230322 57 214 0.0 2.0 0.00 0.00 0.00 58 1011.3
20260504225315 58 209 0.0 1.0 0.00 0.00 0.00 57 1011.3
20260504224307 58 208 0.0 1.0 0.00 0.00 0.00 57 1011.4
20260504223301 59 204 0.0 1.0 0.00 0.00 0.00 56 1011.4
20260504222253 60 209 0.0 2.0 0.00 0.00 0.00 53 1011.4
20260504221245 61 208 0.0 2.0 0.00 0.00 0.00 51 1011.4
20260504220237 62 212 1.0 3.0 0.00 0.00 0.00 49 1011.3
20260504215230 62 198 1.0 4.0 0.00 0.00 0.00 48 1011.3
20260504214222 63 164 1.0 4.0 0.00 0.00 0.00 47 1011.5
20260504213216 63 141 1.0 6.0 0.00 0.00 0.00 46 1011.2
20260504212209 63 110 2.0 6.0 0.00 0.00 0.00 46 1011.5
20260504211200 64 91 2.0 4.0 0.00 0.00 0.00 45 1011.6
20260504210154 64 82 2.0 6.0 0.00 0.00 0.00 45 1011.6
20260504205148 64 88 3.0 7.0 0.00 0.00 0.00 44 1011.6
20260504204140 65 100 3.0 7.0 0.00 0.00 0.00 43 1011.5
20260504203133 65 98 3.0 7.0 0.00 0.00 0.00 42 1011.5
20260504202126 66 101 3.0 8.0 0.00 0.00 0.00 42 1011.6
20260504201117 66 96 3.0 8.0 0.00 0.00 0.00 41 1011.5
20260504200110 67 105 3.0 8.0 0.00 0.00 0.00 39 1011.6
20260504195103 67 104 3.0 6.0 0.00 0.00 0.00 39 1011.8
20260504194056 68 108 3.0 7.0 0.00 0.00 0.00 38 1011.6
20260504193048 68 108 3.0 7.0 0.00 0.00 0.00 37 1011.8
20260504192041 68 118 3.0 7.0 0.00 0.00 0.00 37 1011.9
20260504191034 69 113 3.0 7.0 0.00 0.00 0.00 36 1011.8
20260504190027 69 115 3.0 7.0 0.00 0.00 0.00 35 1011.9